^^
Saratoga-Weather Station Historical Data
Daily Summary for December 4, 2020 Units:  Metric    English   Both
Daily Weekly Monthly Yearly Custom
  High: Low: Average:
Temperature: 7.3 °C 1.4 °C 5.1 °C
Dew Point: 5.5 °C 0.8 °C 3.9 °C
Humidity: 97% 86% 92%
Wind Speed: 20.9km/h 0km/h 2.8km/h
Wind Gust: 33.8km/h - -
Wind- - SE
Pressure: 990.2 hPa 983.1 hPa -
Precipitation: 2.5 mm    
Historical Graphs
 
 
Tabular Data for December 4, 2020
Time Temperature Dew Point Pressure Wind Wind Speed Wind Gust Humidity Rainfall Rate (Hourly) solar
00:00 4.6 °C 3.9 °C 986.5 hPa East 7.9 km/h 20.9 km/h 95% 0.5 mm 0 W/m2
00:05 4.6 °C 3.9 °C 986.5 hPa ESE 3.2 km/h 12.9 km/h 95% 0.5 mm 0 W/m2
00:10 4.6 °C 3.9 °C 986.1 hPa ENE 4.7 km/h 20.9 km/h 95% 0.5 mm 0 W/m2
00:15 4.7 °C 4 °C 986.1 hPa ENE 6.4 km/h 14.5 km/h 95% 0.5 mm 0 W/m2
00:20 4.7 °C 4 °C 985.8 hPa Calm   6.4 km/h 95% 0.5 mm 0 W/m2
00:25 4.7 °C 4 °C 985.8 hPa ESE 3.2 km/h 9.7 km/h 95% 0.5 mm 0 W/m2
00:30 4.8 °C 4.1 °C 985.8 hPa ESE 3.2 km/h 22.5 km/h 95% 0.5 mm 0 W/m2
00:35 4.8 °C 3.9 °C 985.8 hPa ENE 1.4 km/h 4.8 km/h 94% 0.5 mm 0 W/m2
00:40 4.8 °C 3.9 °C 985.8 hPa SSE 9.7 km/h 16.1 km/h 94% 0.5 mm 0 W/m2
00:45 4.8 °C 4.1 °C 985.4 hPa East 14.3 km/h 14.5 km/h 95% 0.5 mm 0 W/m2
00:50 4.9 °C 4.2 °C 985.4 hPa ESE 7.9 km/h 17.7 km/h 95% 0.2 mm 0 W/m2
00:55 4.9 °C 4.2 °C 985.4 hPa ESE 6.4 km/h 8 km/h 95% 0.2 mm 0 W/m2
01:01 4.9 °C 4.2 °C 985.1 hPa SSE 6.4 km/h 17.7 km/h 95% 0.2 mm 0 W/m2
01:06 4.9 °C 4.2 °C 985.1 hPa ESE 11.1 km/h 14.5 km/h 95% 0.2 mm 0 W/m2
01:11 4.9 °C 4.2 °C 985.1 hPa ESE 6.4 km/h 9.7 km/h 95% 0.5 mm 0 W/m2
01:16 4.9 °C 4.2 °C 985.1 hPa SE 11.1 km/h 16.1 km/h 95% 0.2 mm 0 W/m2
01:21 5 °C 4.3 °C 984.8 hPa NE 1.4 km/h 9.7 km/h 95% 0.2 mm 0 W/m2
01:26 5 °C 4.3 °C 984.8 hPa ENE 6.4 km/h 16.1 km/h 95% 0.2 mm 0 W/m2
01:31 5.1 °C 4.4 °C 984.8 hPa ENE 4.7 km/h 11.3 km/h 95% 0.2 mm 0 W/m2
01:36 5.1 °C 4.4 °C 984.4 hPa East 6.4 km/h 17.7 km/h 95% 0.2 mm 0 W/m2
01:41 5.2 °C 4.5 °C 984.4 hPa ESE 3.2 km/h 9.7 km/h 95% 0.2 mm 0 W/m2
01:46 5.3 °C 4.4 °C 984.4 hPa SE 1.4 km/h 17.7 km/h 94% 0.5 mm 0 W/m2
01:51 5.4 °C 4.5 °C 984.4 hPa ENE 7.9 km/h 19.3 km/h 94% 0.5 mm 0 W/m2
01:56 5.6 °C 4.7 °C 984.4 hPa ENE 4.7 km/h 14.5 km/h 94% 0.5 mm 0 W/m2
02:01 5.6 °C 4.7 °C 984.1 hPa East 7.9 km/h 19.3 km/h 94% 0.5 mm 0 W/m2
02:06 5.7 °C 4.8 °C 984.1 hPa ENE 4.7 km/h 11.3 km/h 94% 0.5 mm 0 W/m2
02:11 5.7 °C 4.8 °C 984.1 hPa East 4.7 km/h 16.1 km/h 94% 0.5 mm 0 W/m2
02:16 5.8 °C 4.9 °C 984.1 hPa ESE 19.5 km/h 19.3 km/h 94% 0.5 mm 0 W/m2
02:21 5.9 °C 5 °C 983.8 hPa ESE 20.9 km/h 20.9 km/h 94% 0.5 mm 0 W/m2
02:26 6.1 °C 5.1 °C 984.1 hPa NE 9.7 km/h 12.9 km/h 93% 0.5 mm 0 W/m2
02:31 6.1 °C 5.1 °C 983.8 hPa East 9.7 km/h 14.5 km/h 93% 0.5 mm 0 W/m2
02:36 6.2 °C 5.2 °C 983.8 hPa SSE 16.3 km/h 17.7 km/h 93% 0.8 mm 0 W/m2
02:41 6.3 °C 5.3 °C 983.8 hPa East 3.2 km/h 12.9 km/h 93% 0.8 mm 0 W/m2
02:46 6.3 °C 5.3 °C 983.8 hPa SE 3.2 km/h 16.1 km/h 93% 0.5 mm 0 W/m2
02:51 6.3 °C 5.3 °C 983.4 hPa East 4.7 km/h 14.5 km/h 93% 0.5 mm 0 W/m2
02:56 6.3 °C 5.3 °C 983.8 hPa ENE 3.2 km/h 22.5 km/h 93% 0.5 mm 0 W/m2
03:01 6.4 °C 5.2 °C 983.4 hPa ENE 20.9 km/h 24.1 km/h 92% 0.5 mm 0 W/m2
03:06 6.5 °C 5.3 °C 983.4 hPa East 17.7 km/h 17.7 km/h 92% 0.5 mm 0 W/m2
03:11 6.6 °C 5.4 °C 983.4 hPa ENE 11.1 km/h 17.7 km/h 92% 0.2 mm 0 W/m2
03:16 6.7 °C 5.5 °C 983.4 hPa East 7.9 km/h 14.5 km/h 92% 0.2 mm 0 W/m2
03:21 6.7 °C 5.3 °C 983.4 hPa ESE 14.3 km/h 33.8 km/h 91% 0.5 mm 0 W/m2
03:26 6.7 °C 5.3 °C 983.1 hPa SE 7.9 km/h 17.7 km/h 91% 0.5 mm 0 W/m2
03:31 6.7 °C 5.3 °C 983.1 hPa WSW 4.7 km/h 14.5 km/h 91% 0.5 mm 0 W/m2
03:36 6.8 °C 5.4 °C 983.4 hPa SSE 3.2 km/h 29 km/h 91% 0.2 mm 0 W/m2
03:41 6.8 °C 5.4 °C 983.1 hPa ENE 13 km/h 17.7 km/h 91% 0.2 mm 0 W/m2
03:46 6.8 °C 5.4 °C 983.1 hPa East 9.7 km/h 29 km/h 91% 0.2 mm 0 W/m2
03:51 6.8 °C 5.3 °C 983.1 hPa NW 3.2 km/h 12.9 km/h 90% 0.2 mm 0 W/m2
03:56 6.8 °C 5.3 °C 983.1 hPa ENE 4.7 km/h 12.9 km/h 90% 0.2 mm 0 W/m2
04:01 6.9 °C 5.4 °C 983.1 hPa NE 3.2 km/h 14.5 km/h 90% 0.2 mm 0 W/m2
04:06 6.9 °C 5.4 °C 983.1 hPa WNW 6.4 km/h 14.5 km/h 90% 0.2 mm 0 W/m2
04:11 6.9 °C 5.4 °C 983.1 hPa ENE 6.4 km/h 12.9 km/h 90% 0.2 mm 0 W/m2
04:16 6.9 °C 5.2 °C 983.1 hPa NE 4.7 km/h 8 km/h 89% 0.2 mm 0 W/m2
04:21 6.9 °C 5.2 °C 983.1 hPa North 4.7 km/h 11.3 km/h 89% 0.0 mm 0 W/m2
04:26 7 °C 5.3 °C 983.1 hPa ENE 3.2 km/h 12.9 km/h 89% 0.0 mm 0 W/m2
04:31 7 °C 5.3 °C 983.1 hPa West 4.7 km/h 9.7 km/h 89% 0.0 mm 0 W/m2
04:36 7.1 °C 5.2 °C 983.4 hPa NW 1.4 km/h 8 km/h 88% 0.0 mm 0 W/m2
04:41 7.1 °C 5.2 °C 983.1 hPa NE 1.4 km/h 8 km/h 88% 0.0 mm 0 W/m2
04:46 7.1 °C 5.2 °C 983.4 hPa North 3.2 km/h 17.7 km/h 88% 0.0 mm 0 W/m2
04:51 7.2 °C 5.3 °C 983.4 hPa North 6.4 km/h 8 km/h 88% 0.0 mm 0 W/m2
04:56 7.2 °C 5.2 °C 983.4 hPa ENE 16.3 km/h 17.7 km/h 87% 0.0 mm 0 W/m2
05:01 7.2 °C 5.2 °C 983.4 hPa ESE 9.7 km/h 9.7 km/h 87% 0.0 mm 0 W/m2
05:06 7.2 °C 5.2 °C 983.4 hPa North 19.3 km/h 19.3 km/h 87% 0.0 mm 0 W/m2
05:11 7.2 °C 5.2 °C 983.4 hPa ESE 1.4 km/h 17.7 km/h 87% 0.0 mm 0 W/m2
05:16 7.3 °C 5.1 °C 983.4 hPa WNW 4.7 km/h 8 km/h 86% 0.0 mm 0 W/m2
05:21 7.3 °C 5.3 °C 983.4 hPa NNE 3.2 km/h 17.7 km/h 87% 0.0 mm 0 W/m2
05:26 7.2 °C 5.2 °C 983.8 hPa NW 3.2 km/h 12.9 km/h 87% 0.0 mm 0 W/m2
05:31 7.2 °C 5.2 °C 983.8 hPa NW 6.4 km/h 12.9 km/h 87% 0.0 mm 0 W/m2
05:36 7.2 °C 5.2 °C 983.8 hPa NW 3.2 km/h 6.4 km/h 87% 0.0 mm 0 W/m2
05:41 7.1 °C 5.1 °C 983.8 hPa ENE 3.2 km/h 6.4 km/h 87% 0.0 mm 0 W/m2
05:46 7.1 °C 5.2 °C 983.8 hPa NW 4.7 km/h 9.7 km/h 88% 0.2 mm 0 W/m2
05:51 6.9 °C 5.2 °C 983.8 hPa NNE 1.4 km/h 6.4 km/h 89% 0.2 mm 0 W/m2
05:56 6.9 °C 5.2 °C 983.8 hPa NNW 3.2 km/h 6.4 km/h 89% 0.2 mm 0 W/m2
06:01 6.8 °C 5.3 °C 983.8 hPa NW 1.4 km/h 9.7 km/h 90% 0.2 mm 0 W/m2
06:06 6.7 °C 5.2 °C 983.8 hPa NNW 4.7 km/h 6.4 km/h 90% 0.2 mm 0 W/m2
06:12 6.7 °C 5.3 °C 983.8 hPa NNW 1.4 km/h 8 km/h 91% 0.2 mm 0 W/m2
06:17 6.6 °C 5.2 °C 983.8 hPa Calm   1.6 km/h 91% 0.2 mm 0 W/m2
06:22 6.6 °C 5.2 °C 983.8 hPa Calm   4.8 km/h 91% 0.5 mm 0 W/m2
06:27 6.6 °C 5.2 °C 983.8 hPa North 3.2 km/h 3.2 km/h 91% 0.5 mm 0 W/m2
06:32 6.6 °C 5.2 °C 983.8 hPa North 6.4 km/h 6.4 km/h 91% 0.5 mm 0 W/m2
06:37 6.6 °C 5.2 °C 983.8 hPa WNW 3.2 km/h 8 km/h 91% 0.5 mm 0 W/m2
06:42 6.6 °C 5.2 °C 984.1 hPa ENE 3.2 km/h 11.3 km/h 91% 0.5 mm 0 W/m2
06:47 6.6 °C 5.2 °C 984.1 hPa NE 6.4 km/h 8 km/h 91% 0.5 mm 0 W/m2
06:52 6.6 °C 5.2 °C 983.8 hPa North 3.2 km/h 6.4 km/h 91% 0.5 mm 0 W/m2
06:57 6.6 °C 5.2 °C 984.1 hPa NE 3.2 km/h 6.4 km/h 91% 0.5 mm 0 W/m2
07:02 6.6 °C 5.2 °C 984.1 hPa Calm   3.2 km/h 91% 0.5 mm 0 W/m2
07:07 6.6 °C 5.2 °C 984.4 hPa Calm   6.4 km/h 91% 0.5 mm 0 W/m2
07:12 6.6 °C 5.2 °C 984.1 hPa ENE 3.2 km/h 8 km/h 91% 0.5 mm 0 W/m2
07:17 6.6 °C 5.2 °C 984.4 hPa Calm   6.4 km/h 91% 0.5 mm 0 W/m2
07:22 6.6 °C 5.2 °C 984.1 hPa Calm   8 km/h 91% 0.2 mm 0 W/m2
07:27 6.6 °C 5.2 °C 984.1 hPa ENE 6.4 km/h 9.7 km/h 91% 0.2 mm 0 W/m2
07:32 6.6 °C 5.2 °C 984.4 hPa North 1.4 km/h 6.4 km/h 91% 0.2 mm 0 W/m2
07:37 6.6 °C 5.2 °C 984.4 hPa East 9.7 km/h 11.3 km/h 91% 0.0 mm 0 W/m2
07:42 6.6 °C 5.1 °C 984.1 hPa NE 1.4 km/h 4.8 km/h 90% 0.0 mm 0 W/m2
07:47 6.6 °C 5.1 °C 984.1 hPa NNW 1.4 km/h 4.8 km/h 90% 0.0 mm 0 W/m2
07:52 6.6 °C 5.1 °C 984.1 hPa NE 1.4 km/h 8 km/h 90% 0.0 mm 0 W/m2
07:57 6.4 °C 4.7 °C 984.4 hPa NNW 4.7 km/h 9.7 km/h 89% 0.0 mm 0 W/m2
08:02 6.4 °C 4.7 °C 984.4 hPa West 3.2 km/h 6.4 km/h 89% 0.0 mm 0 W/m2
08:07 6.4 °C 4.7 °C 984.4 hPa NNE 1.4 km/h 4.8 km/h 89% 0.0 mm 0 W/m2
08:12 6.4 °C 4.7 °C 984.8 hPa Calm   3.2 km/h 89% 0.0 mm 0 W/m2
08:17 6.4 °C 4.7 °C 984.4 hPa East 3.2 km/h 6.4 km/h 89% 0.0 mm 0 W/m2
08:22 6.4 °C 4.7 °C 984.4 hPa ENE 4.7 km/h 4.8 km/h 89% 0.0 mm 0 W/m2
08:27 6.5 °C 4.8 °C 984.1 hPa ENE 4.7 km/h 6.4 km/h 89% 0.0 mm 5 W/m2
08:32 6.4 °C 4.7 °C 984.4 hPa NW 1.4 km/h 6.4 km/h 89% 0.0 mm 12 W/m2
08:37 6.5 °C 4.7 °C 984.8 hPa NNW 3.2 km/h 11.3 km/h 88% 0.0 mm 19 W/m2
08:42 6.5 °C 4.7 °C 984.8 hPa East 3.2 km/h 6.4 km/h 88% 0.0 mm 16 W/m2
08:47 6.5 °C 4.7 °C 984.8 hPa ENE 4.7 km/h 11.3 km/h 88% 0.0 mm 21 W/m2
08:52 6.6 °C 4.8 °C 984.8 hPa ENE 6.4 km/h 16.1 km/h 88% 0.0 mm 26 W/m2
08:57 6.6 °C 4.8 °C 984.8 hPa NE 3.2 km/h 4.8 km/h 88% 0.0 mm 23 W/m2
09:02 6.6 °C 4.8 °C 984.8 hPa NNE 6.4 km/h 9.7 km/h 88% 0.0 mm 28 W/m2
09:07 6.6 °C 4.8 °C 985.1 hPa NE 6.4 km/h 9.7 km/h 88% 0.0 mm 25 W/m2
09:12 6.6 °C 4.6 °C 985.1 hPa ENE 1.4 km/h 3.2 km/h 87% 0.0 mm 32 W/m2
09:17 6.6 °C 4.6 °C 985.1 hPa Calm   6.4 km/h 87% 0.0 mm 30 W/m2
09:22 6.6 °C 4.8 °C 985.1 hPa ESE 3.2 km/h 11.3 km/h 88% 0.0 mm 25 W/m2
09:27 6.7 °C 4.9 °C 985.4 hPa East 4.7 km/h 12.9 km/h 88% 0.0 mm 14 W/m2
09:32 6.7 °C 4.9 °C 985.4 hPa East 9.7 km/h 9.7 km/h 88% 0.0 mm 16 W/m2
09:37 6.7 °C 4.9 °C 985.4 hPa East 4.7 km/h 8 km/h 88% 0.0 mm 26 W/m2
09:42 6.6 °C 4.8 °C 985.4 hPa East 4.7 km/h 4.8 km/h 88% 0.0 mm 33 W/m2
09:47 6.6 °C 4.8 °C 985.4 hPa SE 3.2 km/h 11.3 km/h 88% 0.0 mm 49 W/m2
09:52 6.6 °C 4.8 °C 985.8 hPa ENE 1.4 km/h 6.4 km/h 88% 0.0 mm 39 W/m2
09:57 6.6 °C 4.8 °C 985.8 hPa ESE 6.4 km/h 11.3 km/h 88% 0.0 mm 42 W/m2
10:02 6.6 °C 4.8 °C 985.8 hPa East 11.1 km/h 11.3 km/h 88% 0.0 mm 49 W/m2
10:07 6.6 °C 4.8 °C 985.8 hPa East 3.2 km/h 6.4 km/h 88% 0.0 mm 32 W/m2
10:12 6.6 °C 4.9 °C 985.8 hPa East 1.4 km/h 8 km/h 89% 0.0 mm 35 W/m2
10:17 6.6 °C 4.9 °C 985.8 hPa NE 3.2 km/h 4.8 km/h 89% 0.0 mm 40 W/m2
10:22 6.6 °C 4.9 °C 985.8 hPa East 3.2 km/h 4.8 km/h 89% 0.0 mm 42 W/m2
10:27 6.6 °C 4.9 °C 985.8 hPa ENE 3.2 km/h 6.4 km/h 89% 0.0 mm 54 W/m2
10:32 6.6 °C 4.9 °C 986.1 hPa East 3.2 km/h 3.2 km/h 89% 0.0 mm 26 W/m2
10:37 6.6 °C 4.9 °C 986.1 hPa East 1.4 km/h 6.4 km/h 89% 0.0 mm 21 W/m2
10:42 6.6 °C 4.9 °C 986.1 hPa East 3.2 km/h 4.8 km/h 89% 0.0 mm 18 W/m2
10:47 6.6 °C 5.1 °C 986.1 hPa SE 3.2 km/h 11.3 km/h 90% 0.0 mm 32 W/m2
10:52 6.5 °C 5 °C 986.5 hPa SE 1.4 km/h 3.2 km/h 90% 0.0 mm 44 W/m2
10:57 6.4 °C 4.9 °C 986.5 hPa ENE 3.2 km/h 9.7 km/h 90% 0.0 mm 16 W/m2
11:02 6.4 °C 4.9 °C 986.5 hPa ENE 3.2 km/h 6.4 km/h 90% 0.0 mm 32 W/m2
11:07 6.4 °C 5 °C 986.5 hPa SE 1.4 km/h 8 km/h 91% 0.0 mm 60 W/m2
11:12 6.4 °C 5 °C 986.1 hPa SE 1.4 km/h 3.2 km/h 91% 0.0 mm 58 W/m2
11:17 6.4 °C 5 °C 986.5 hPa ENE 6.4 km/h 6.4 km/h 91% 0.0 mm 81 W/m2
11:22 6.4 °C 5 °C 986.1 hPa ENE 1.4 km/h 4.8 km/h 91% 0.0 mm 53 W/m2
11:27 6.4 °C 5 °C 985.8 hPa ENE 1.4 km/h 3.2 km/h 91% 0.0 mm 93 W/m2
11:32 6.5 °C 5.1 °C 986.1 hPa Calm   1.6 km/h 91% 0.0 mm 67 W/m2
11:37 6.6 °C 5.2 °C 985.8 hPa Calm   3.2 km/h 91% 0.0 mm 95 W/m2
11:42 6.6 °C 5.2 °C 985.8 hPa NNE 1.4 km/h 1.6 km/h 91% 0.0 mm 107 W/m2
11:47 6.7 °C 5.3 °C 985.8 hPa East 1.4 km/h 6.4 km/h 91% 0.0 mm 93 W/m2
11:52 6.7 °C 5.3 °C 986.1 hPa Calm   3.2 km/h 91% 0.0 mm 53 W/m2
11:57 6.7 °C 5.3 °C 986.1 hPa Calm   6.4 km/h 91% 0.0 mm 26 W/m2
12:02 6.7 °C 5.3 °C 986.1 hPa East 3.2 km/h 3.2 km/h 91% 0.0 mm 28 W/m2
12:07 6.7 °C 5.2 °C 986.1 hPa East 3.2 km/h 6.4 km/h 90% 0.2 mm 23 W/m2
12:12 6.6 °C 5.1 °C 986.1 hPa ESE 1.4 km/h 16.1 km/h 90% 0.5 mm 19 W/m2
12:17 6.4 °C 4.9 °C 986.5 hPa East 4.7 km/h 8 km/h 90% 0.5 mm 16 W/m2
12:22 6.2 °C 4.5 °C 986.5 hPa SE 1.4 km/h 8 km/h 89% 0.5 mm 19 W/m2
12:27 6.1 °C 4.4 °C 986.1 hPa North 3.2 km/h 4.8 km/h 89% 0.5 mm 51 W/m2
12:32 5.9 °C 4.2 °C 986.1 hPa Calm   4.8 km/h 89% 0.5 mm 46 W/m2
12:37 5.9 °C 4.4 °C 986.1 hPa Calm   3.2 km/h 90% 0.5 mm 79 W/m2
12:42 5.8 °C 4.3 °C 986.1 hPa ENE 4.7 km/h 8 km/h 90% 0.5 mm 104 W/m2
12:47 5.8 °C 4.3 °C 986.1 hPa NE 6.4 km/h 6.4 km/h 90% 0.5 mm 105 W/m2
12:52 5.9 °C 4.5 °C 986.1 hPa Calm   3.2 km/h 91% 0.5 mm 97 W/m2
12:57 5.9 °C 4.5 °C 986.1 hPa Calm   4.8 km/h 91% 0.5 mm 86 W/m2
13:02 6 °C 4.6 °C 986.1 hPa NE 1.4 km/h 3.2 km/h 91% 0.5 mm 79 W/m2
13:07 6.1 °C 4.7 °C 986.1 hPa NNW 3.2 km/h 3.2 km/h 91% 0.5 mm 91 W/m2
13:12 6.1 °C 4.6 °C 986.1 hPa NW 1.4 km/h 4.8 km/h 90% 0.2 mm 91 W/m2
13:17 6.1 °C 4.4 °C 986.1 hPa North 3.2 km/h 4.8 km/h 89% 0.2 mm 91 W/m2
13:22 6.2 °C 4.4 °C 986.5 hPa North 3.2 km/h 4.8 km/h 88% 0.2 mm 83 W/m2
13:27 6.2 °C 4.2 °C 986.5 hPa WSW 6.4 km/h 6.4 km/h 87% 0.0 mm 83 W/m2
13:32 6.2 °C 4 °C 986.5 hPa NNW 1.4 km/h 6.4 km/h 86% 0.0 mm 83 W/m2
13:37 6.2 °C 4 °C 986.5 hPa NW 3.2 km/h 4.8 km/h 86% 0.0 mm 83 W/m2
13:42 6.2 °C 4 °C 986.1 hPa Calm   3.2 km/h 86% 0.0 mm 84 W/m2
13:47 6.3 °C 4.1 °C 986.5 hPa Calm   4.8 km/h 86% 0.0 mm 74 W/m2
13:52 6.3 °C 4.3 °C 986.5 hPa North 1.4 km/h 4.8 km/h 87% 0.0 mm 69 W/m2
13:57 6.3 °C 4.3 °C 986.5 hPa ENE 6.4 km/h 6.4 km/h 87% 0.0 mm 74 W/m2
14:02 6.2 °C 4.2 °C 986.5 hPa ENE 4.7 km/h 6.4 km/h 87% 0.0 mm 83 W/m2
14:07 6.2 °C 4 °C 986.5 hPa Calm   3.2 km/h 86% 0.0 mm 88 W/m2
14:12 6.2 °C 4.2 °C 986.5 hPa Calm   3.2 km/h 87% 0.0 mm 74 W/m2
14:17 6.2 °C 4.2 °C 986.8 hPa Calm   1.6 km/h 87% 0.0 mm 65 W/m2
14:22 6.2 °C 4 °C 986.8 hPa WSW 1.4 km/h 6.4 km/h 86% 0.0 mm 69 W/m2
14:27 6.2 °C 4 °C 986.8 hPa Calm   1.6 km/h 86% 0.0 mm 65 W/m2
14:32 6.2 °C 4 °C 986.8 hPa Calm   6.4 km/h 86% 0.0 mm 58 W/m2
14:37 6.2 °C 4.2 °C 987.1 hPa Calm     87% 0.0 mm 53 W/m2
14:42 6.2 °C 4 °C 987.1 hPa East 6.4 km/h 6.4 km/h 86% 0.0 mm 53 W/m2
14:48 6.2 °C 4.2 °C 987.1 hPa East 1.4 km/h 3.2 km/h 87% 0.0 mm 46 W/m2
14:53 6.2 °C 4.2 °C 987.1 hPa East 1.4 km/h 1.6 km/h 87% 0.0 mm 47 W/m2
14:58 6.2 °C 4.2 °C 987.1 hPa NE 1.4 km/h 6.4 km/h 87% 0.0 mm 42 W/m2
15:03 6.1 °C 4.1 °C 987.1 hPa Calm     87% 0.0 mm 40 W/m2
15:08 6 °C 4.2 °C 987.1 hPa Calm   6.4 km/h 88% 0.0 mm 42 W/m2
15:13 6 °C 4.2 °C 987.1 hPa NE 3.2 km/h 3.2 km/h 88% 0.0 mm 33 W/m2
15:18 5.9 °C 4.1 °C 987.1 hPa NE 3.2 km/h 3.2 km/h 88% 0.0 mm 33 W/m2
15:23 5.9 °C 4.1 °C 987.1 hPa NE 1.4 km/h 1.6 km/h 88% 0.0 mm 28 W/m2
15:28 5.8 °C 4 °C 987.1 hPa Calm   1.6 km/h 88% 0.0 mm 30 W/m2
15:33 5.8 °C 4 °C 987.1 hPa North 1.4 km/h 4.8 km/h 88% 0.0 mm 26 W/m2
15:38 5.7 °C 3.9 °C 987.1 hPa Calm   1.6 km/h 88% 0.0 mm 25 W/m2
15:43 5.7 °C 3.9 °C 987.1 hPa Calm   4.8 km/h 88% 0.0 mm 19 W/m2
15:48 5.7 °C 3.9 °C 987.5 hPa North 3.2 km/h 3.2 km/h 88% 0.0 mm 18 W/m2
15:53 5.6 °C 3.8 °C 987.5 hPa Calm   4.8 km/h 88% 0.0 mm 16 W/m2
15:58 5.6 °C 3.8 °C 987.5 hPa Calm     88% 0.0 mm 14 W/m2
16:03 5.5 °C 3.7 °C 987.5 hPa Calm   1.6 km/h 88% 0.0 mm 12 W/m2
16:08 5.4 °C 3.6 °C 987.5 hPa NE 1.4 km/h 3.2 km/h 88% 0.0 mm 9 W/m2
16:13 5.3 °C 3.5 °C 987.5 hPa Calm     88% 0.0 mm 9 W/m2
16:18 5.3 °C 3.6 °C 987.5 hPa Calm     89% 0.0 mm 9 W/m2
16:23 5.3 °C 3.8 °C 987.5 hPa Calm     90% 0.0 mm 5 W/m2
16:28 5.1 °C 3.6 °C 987.5 hPa Calm     90% 0.0 mm 0 W/m2
16:33 5 °C 3.5 °C 987.5 hPa Calm     90% 0.0 mm 5 W/m2
16:38 4.9 °C 3.6 °C 987.8 hPa Calm     91% 0.0 mm 5 W/m2
16:43 4.8 °C 3.5 °C 987.8 hPa Calm     91% 0.0 mm 0 W/m2
16:48 4.7 °C 3.4 °C 987.8 hPa Calm     91% 0.0 mm 0 W/m2
16:53 4.6 °C 3.4 °C 987.8 hPa Calm     92% 0.0 mm 0 W/m2
16:58 4.4 °C 3.2 °C 987.8 hPa Calm     92% 0.0 mm 0 W/m2
17:03 4.3 °C 3.1 °C 987.8 hPa Calm     92% 0.0 mm 0 W/m2
17:08 4.2 °C 3 °C 987.8 hPa Calm     92% 0.0 mm 0 W/m2
17:13 4.1 °C 2.9 °C 987.8 hPa Calm     92% 0.0 mm 0 W/m2
17:18 4.1 °C 3.1 °C 988.1 hPa Calm     93% 0.0 mm 0 W/m2
17:23 4 °C 3 °C 988.1 hPa Calm     93% 0.0 mm 0 W/m2
17:28 4 °C 3 °C 988.1 hPa Calm     93% 0.0 mm 0 W/m2
17:33 3.9 °C 3 °C 988.1 hPa Calm     94% 0.0 mm 0 W/m2
17:38 3.9 °C 3 °C 988.1 hPa Calm     94% 0.0 mm 0 W/m2
17:43 3.9 °C 3 °C 988.1 hPa Calm     94% 0.0 mm 0 W/m2
17:48 3.8 °C 2.9 °C 988.1 hPa Calm     94% 0.0 mm 0 W/m2
17:53 3.8 °C 2.9 °C 988.1 hPa Calm     94% 0.0 mm 0 W/m2
17:58 3.7 °C 2.8 °C 988.1 hPa Calm     94% 0.0 mm 0 W/m2
18:03 3.6 °C 2.7 °C 988.1 hPa Calm     94% 0.0 mm 0 W/m2
18:08 3.6 °C 2.7 °C 988.1 hPa Calm     94% 0.0 mm 0 W/m2
18:13 3.6 °C 2.7 °C 988.5 hPa Calm     94% 0.0 mm 0 W/m2
18:18 3.5 °C 2.8 °C 988.1 hPa Calm     95% 0.0 mm 0 W/m2
18:23 3.4 °C 2.5 °C 988.1 hPa Calm     94% 0.0 mm 0 W/m2
18:28 3.4 °C 2.5 °C 988.5 hPa Calm     94% 0.0 mm 0 W/m2
18:33 3.3 °C 2.6 °C 988.1 hPa Calm     95% 0.0 mm 0 W/m2
18:38 3.3 °C 2.6 °C 988.5 hPa Calm     95% 0.0 mm 0 W/m2
18:43 3.3 °C 2.6 °C 988.5 hPa Calm     95% 0.0 mm 0 W/m2
18:48 3.3 °C 2.6 °C 988.5 hPa Calm     95% 0.0 mm 0 W/m2
18:53 3.3 °C 2.6 °C 988.5 hPa Calm     95% 0.0 mm 0 W/m2
18:58 3.3 °C 2.6 °C 988.8 hPa Calm     95% 0.0 mm 0 W/m2
19:03 3.2 °C 2.5 °C 988.8 hPa Calm     95% 0.0 mm 0 W/m2
19:08 3.2 °C 2.5 °C 988.8 hPa Calm     95% 0.0 mm 0 W/m2
19:13 3.2 °C 2.5 °C 988.8 hPa Calm     95% 0.0 mm 0 W/m2
19:18 3.2 °C 2.5 °C 988.8 hPa Calm   1.6 km/h 95% 0.0 mm 0 W/m2
19:23 3.1 °C 2.4 °C 988.8 hPa Calm     95% 0.0 mm 0 W/m2
19:28 3.1 °C 2.4 °C 988.8 hPa Calm     95% 0.0 mm 0 W/m2
19:33 3.1 °C 2.4 °C 989.2 hPa Calm     95% 0.0 mm 0 W/m2
19:38 3.1 °C 2.4 °C 989.2 hPa Calm     95% 0.0 mm 0 W/m2
19:43 3 °C 2.3 °C 988.8 hPa Calm     95% 0.0 mm 0 W/m2
19:49 3 °C 2.3 °C 989.2 hPa Calm     95% 0.0 mm 0 W/m2
19:54 2.9 °C 2.3 °C 989.2 hPa Calm     96% 0.0 mm 0 W/m2
19:59 2.9 °C 2.3 °C 989.2 hPa Calm     96% 0.0 mm 0 W/m2
20:04 2.8 °C 2.1 °C 989.2 hPa Calm     95% 0.0 mm 0 W/m2
20:09 2.8 °C 2.1 °C 988.8 hPa Calm     95% 0.0 mm 0 W/m2
20:14 2.7 °C 2 °C 988.8 hPa Calm     95% 0.0 mm 0 W/m2
20:19 2.6 °C 1.9 °C 988.8 hPa Calm     95% 0.0 mm 0 W/m2
20:24 2.4 °C 1.7 °C 988.8 hPa Calm     95% 0.0 mm 0 W/m2
20:29 2.3 °C 1.6 °C 988.8 hPa Calm     95% 0.0 mm 0 W/m2
20:34 2.3 °C 1.6 °C 988.8 hPa Calm     95% 0.0 mm 0 W/m2
20:39 2.2 °C 1.5 °C 989.2 hPa Calm     95% 0.0 mm 0 W/m2
20:44 2.2 °C 1.6 °C 989.2 hPa Calm     96% 0.0 mm 0 W/m2
20:49 2.1 °C 1.4 °C 989.2 hPa Calm     95% 0.0 mm 0 W/m2
20:54 2.1 °C 1.5 °C 989.2 hPa Calm     96% 0.0 mm 0 W/m2
20:59 2 °C 1.4 °C 989.2 hPa Calm     96% 0.0 mm 0 W/m2
21:04 1.9 °C 1.3 °C 989.2 hPa Calm     96% 0.0 mm 0 W/m2
21:09 1.9 °C 1.3 °C 989.2 hPa Calm   1.6 km/h 96% 0.0 mm 0 W/m2
21:14 1.9 °C 1.3 °C 989.2 hPa ENE 1.4 km/h 1.6 km/h 96% 0.0 mm 0 W/m2
21:19 1.9 °C 1.3 °C 989.2 hPa Calm     96% 0.0 mm 0 W/m2
21:24 1.9 °C 1.3 °C 989.2 hPa Calm     96% 0.0 mm 0 W/m2
21:29 1.9 °C 1.3 °C 989.2 hPa Calm     96% 0.0 mm 0 W/m2
21:34 1.9 °C 1.3 °C 989.2 hPa Calm     96% 0.0 mm 0 W/m2
21:39 1.8 °C 1.2 °C 989.2 hPa Calm     96% 0.0 mm 0 W/m2
21:44 1.8 °C 1.2 °C 989.2 hPa Calm     96% 0.0 mm 0 W/m2
21:49 1.8 °C 1.2 °C 989.2 hPa Calm     96% 0.0 mm 0 W/m2
21:54 1.7 °C 1.1 °C 989.2 hPa Calm     96% 0.0 mm 0 W/m2
21:59 1.7 °C 1.1 °C 989.2 hPa Calm     96% 0.0 mm 0 W/m2
22:04 1.7 °C 1.1 °C 989.2 hPa Calm     96% 0.0 mm 0 W/m2
22:09 1.7 °C 1.1 °C 989.5 hPa Calm     96% 0.0 mm 0 W/m2
22:14 1.6 °C 1 °C 989.5 hPa Calm     96% 0.0 mm 0 W/m2
22:19 1.6 °C 1 °C 989.8 hPa Calm     96% 0.0 mm 0 W/m2
22:24 1.6 °C 1 °C 989.5 hPa Calm     96% 0.0 mm 0 W/m2
22:29 1.5 °C 0.9 °C 989.5 hPa Calm     96% 0.0 mm 0 W/m2
22:34 1.5 °C 0.9 °C 989.5 hPa Calm     96% 0.0 mm 0 W/m2
22:39 1.5 °C 0.9 °C 989.5 hPa Calm     96% 0.0 mm 0 W/m2
22:44 1.5 °C 0.9 °C 989.5 hPa Calm     96% 0.0 mm 0 W/m2
22:49 1.4 °C 0.8 °C 989.5 hPa Calm     96% 0.0 mm 0 W/m2
22:54 1.4 °C 0.8 °C 989.2 hPa Calm     96% 0.0 mm 0 W/m2
22:59 1.4 °C 0.8 °C 989.2 hPa Calm     96% 0.0 mm 0 W/m2
23:04 1.5 °C 0.9 °C 989.5 hPa Calm     96% 0.0 mm 0 W/m2
23:09 1.6 °C 1 °C 989.5 hPa ENE 1.4 km/h 3.2 km/h 96% 0.0 mm 0 W/m2
23:14 1.6 °C 1 °C 989.5 hPa Calm   1.6 km/h 96% 0.0 mm 0 W/m2
23:19 1.6 °C 1 °C 989.8 hPa Calm     96% 0.0 mm 0 W/m2
23:24 1.6 °C 1 °C 989.8 hPa Calm     96% 0.0 mm 0 W/m2
23:29 1.5 °C 0.9 °C 989.8 hPa Calm     96% 0.0 mm 0 W/m2
23:34 1.5 °C 0.9 °C 989.5 hPa Calm     96% 0.0 mm 0 W/m2
23:39 1.5 °C 0.9 °C 989.8 hPa East 1.4 km/h 4.8 km/h 96% 0.0 mm 0 W/m2
23:44 1.6 °C 1.2 °C 989.8 hPa Calm     97% 0.0 mm 0 W/m2
23:49 1.6 °C 1.2 °C 990.2 hPa Calm   4.8 km/h 97% 0.0 mm 0 W/m2
23:54 1.7 °C 1.1 °C 989.8 hPa Calm     96% 0.0 mm 0 W/m2
23:59 1.7 °C 1.1 °C 990.2 hPa Calm     96% 0.0 mm 0 W/m2
Juneau County Weather
Compliments of Weather Underground - 2 mb